Regional Weather Roundup
Issued by NWS

Home | Current Version | Previous Version | Text Only | Print | Product List | Glossary Off
Versions: 1 2 3 4 5 6 7 8 9 10 11 12 13 14 15 16 17 18 19 20 21 22 23 24 25 26 27 28 29 30 31 32 33 34 35 36 37 38 39 40 41 42 43 44 45 46 47 48 49 50

000
ASUS43 KMPX 290010
RWRMN
WEATHER ROUNDUP FOR MINNESOTA
NATIONAL WEATHER SERVICE TWIN CITIES/CHANHASSEN MN
700 PM CDT SAT MAR 28 2015


NOTE: "FAIR" INDICATES FEW OR NO CLOUDS BELOW 12,000 FEET WITH NO
SIGNIFICANT WEATHER AND/OR OBSTRUCTIONS TO VISIBILITY. N/A MEANS
CURRENT SKY AND/OR WEATHER CONDITIONS ARE NOT AVAILABLE.

MNZ060>063-068>070-290100-
   Twin Cities Metro

CITY           SKY/WX    TMP DP  RH WIND       PRES   REMARKS
TWIN CITIES    PTCLDY    39  21  48 S16G24    30.08F
6HR MIN TEMP:  38; 6HR MAX TEMP:  41;

ST PAUL        CLEAR     39  21  48 SE14      30.09F
CRYSTAL        CLEAR     40  22  48 S14G24    30.05F
BLAINE         CLEAR     41  23  48 S20       30.06F
LAKEVILLE      CLEAR     34  23  64 SE10      30.08F WCI  26
EDEN PRAIRIE   CLEAR     39  22  50 SE20      30.05F
6HR MIN TEMP:  39; 6HR MAX TEMP:  43;

SOUTH ST PAUL  CLEAR     39  20  46 S9G16     30.09F
LAKE ELMO      FAIR      37  23  56 S14       30.09F
$$
MNZ001>005-007-008-013>017-022>024-027-028-290100-
   Northwest Minnesota

CITY           SKY/WX    TMP DP  RH WIND       PRES   REMARKS
BEMIDJI        MOCLDY    41  24  52 S20G28    29.84F
HALLOCK        CLOUDY    46  30  53 S28G37    29.66F
ROSEAU         CLOUDY    43  30  61 S21G31    29.73F
WARROAD        CLOUDY    43  28  56 S16G22    29.74F
THIEF RVR FALL CLOUDY    43  28  56 S17G30    29.75F
CROOKSTON      CLOUDY    46  30  53 S30G36    29.74F
FOSSTON        CLOUDY    39  27  60 S20G29    29.79F
DETROIT LAKES  MOCLDY    43  30  61 S22G30    29.84F
MOORHEAD       MOCLDY    50  28  43 S30G36    29.79F
PARK RAPIDS    PTCLDY    42  25  50 S23G29    29.88F
MAHNOMEN       FAIR      42  28  59 S22G28    29.80F
$$
MNZ006-009>011-018-025>026-290100-
   North Central Minnesota

CITY           SKY/WX    TMP DP  RH WIND       PRES   REMARKS
BAUDETTE       CLOUDY    42  24  49 S21G30    29.76F
FLAG ISLAND    CLOUDY    36  28  75 S17       29.73F
INTL FALLS     MOCLDY    42  16  34 VRB7G20   29.83F
6HR MIN TEMP:  40; 6HR MAX TEMP:  45;

WASKISH        CLOUDY    43  25  49 S7        29.81F
BIG FORK       PTCLDY    41  19  42 S12G22    29.87F
LONGVILLE      MOCLDY    39  21  48 S17G24    29.91F
GRAND RAPIDS   PTCLDY    39  18  41 S16G29    29.92F
CRANE LAKE     PTCLDY    41   9  26 S9G18     29.90F
ORR            PTCLDY    39  12  33 S14G20    29.86F
COOK           PTCLDY    39  16  38 S8        29.90F
WALKER         FAIR      39  24  53 S15G24    29.88F
$$
MNZ012-019>021-037-290100-
   Northeast Minnesota

CITY           SKY/WX    TMP DP  RH WIND       PRES   REMARKS
DULUTH         PTCLDY    40  13  33 SW14      29.97F
6HR MIN TEMP:  38; 6HR MAX TEMP:  44;

ELY            PTCLDY    39   5  24 S10G21    29.92F
HIBBING        PTCLDY    40  15  36 SW12G20   29.93F
EVELETH        PTCLDY    39  14  35 S14       29.94F
DULUTH HARBOR  CLEAR     43  12  28 S13       30.01F
TWO HARBORS    CLEAR     39  19  45 S6        29.97F
SILVER BAY     CLEAR     34  16  47 S5        29.97F WCI  30
GRAND MARAIS     N/A     31  17  56 CALM      30.03F
G MARAIS ARPRT CLOUDY    27   3  36 S6        29.97F WCI  20
$$
MNZ029>031-032-039>041-046>048-054>057-064-290100-
   West Central Minnesota

CITY           SKY/WX    TMP DP  RH WIND       PRES   REMARKS
FERGUS FALLS   MOCLDY    45  27  49 S23G32    29.87F
WHEATON        PTCLDY    46  30  53 SE15G24   29.85F
MORRIS         CLEAR     46  34  61 SE21G26   29.87F
ALEXANDRIA     PTCLDY    42  27  55 S22G30    29.91F
ELBOW LAKE     FAIR      44  31  60 SE24G33   29.85F
WADENA         PTCLDY    39  27  60 S17G29    29.90F
GLENWOOD       CLEAR     41  28  60 S18       29.93F
APPLETON       CLEAR     50  30  46 S15G22    29.88F
BENSON         CLEAR     46  28  49 S17       29.91F
ORTONVILLE     PTCLDY    50  28  43 S20G26    29.85F
MADISON        CLEAR     52  27  37 S18G26    29.88F
WILLMAR        FAIR      45  28  53 S8G18     29.96F
$$
MNZ033>034-036-042>043-049>051-058-059-290100-
   Central Minnesota

CITY           SKY/WX    TMP DP  RH WIND       PRES   REMARKS
ST CLOUD       CLEAR     41  22  46 S16G26    29.99F
6HR MIN TEMP:  40; 6HR MAX TEMP:  43;

SAUK CENTRE    FAIR      40  28  61 S16       29.94F
PAYNESVILLE    CLEAR     39  26  59 SE13G21   29.96F
AITKIN         PTCLDY    43  21  42 S17       29.95S
PINE RIVER     PTCLDY    39  25  56 S16G24    29.96F
BRAINERD       PTCLDY    39  21  48 S16G30    29.96F
STAPLES        PTCLDY    37  25  60 S15G22    29.93F
LONG PRAIRIE   FAIR      37  28  70 SE20      29.94F
LITTLE FALLS   CLEAR     41  23  48 S12G21    29.97S
LITCHFIELD     CLEAR     43  27  52 SE7G17    29.98F
BUFFALO        CLEAR     41  23  48 SE13G18   30.04F
MAPLE LAKE     CLEAR     42  27  55 SE10G16   30.02F
$$
MNZ037-044-045-052-053-290100-
   East Central Minnesota

CITY           SKY/WX    TMP DP  RH WIND       PRES   REMARKS
PRINCETON      CLEAR     41  21  45 S13G21    30.02F
MORA           CLEAR     37  19  48 S17G24    30.03F
CAMBRIDGE      CLEAR     43  25  49 S13G18    30.01F
RUSH CITY      CLEAR     39  19  45 S13G20    30.04F
MOOSE LAKE     CLEAR     39  18  41 S6G18     29.98F
HINCKLEY       FAIR      39  19  45 S18       30.02F
CLOQUET        PTCLDY    39  10  30 S14G22    29.98S
MCGREGOR       CLEAR     39  21  48 S16       29.98F
$$
MNZ071>073-080-081-089-090-097-098-290100-
   Southwest Minnesota

CITY           SKY/WX    TMP DP  RH WIND       PRES   REMARKS
MONTEVIDEO     CLEAR     48  30  49 S10G20    29.93F
GRANITE FALLS  CLEAR     46  31  56 SE16G24   29.94F
CANBY          CLEAR     50  27  39 S14G24    29.90F
MARSHALL       CLEAR     48  27  43 S21G29    29.93F
REDWOOD FALLS  CLEAR     46  28  49 S17G28    29.97F
OLIVIA         CLEAR     43  30  61 S13G18    29.96F
PIPESTONE      CLEAR     48  27  43 S23       29.91F
WINDOM         CLEAR     46  27  46 S15G26    29.98F
WORTHINGTON    CLEAR     46  27  46 S21       29.98F
JACKSON        CLEAR     46  25  42 S16G22    30.01S
TRACY          CLEAR     48  30  49 S17G24    29.94F
SLAYTON        CLEAR     46  24  41 S24       29.94F
$$
MNZ065>067-074>077-082>085-091>093-290100-
   South Central Minnesota

CITY           SKY/WX    TMP DP  RH WIND       PRES   REMARKS
MANKATO        CLEAR     43  25  49 S14G20    30.04F
NEW ULM        CLEAR     45  25  45 S17       30.00F
ST JAMES       CLEAR     46  25  42 S18G24    30.02F
FAIRMONT       CLEAR     45  12  26 S16G23    30.02F
GLENCOE        CLEAR     42  30  63 SE9       30.02F
FARIBAULT      CLEAR     37  27  65 SE12      30.07F
OWATONNA       CLEAR     39  25  56 S9        30.08F
WASECA         CLEAR     41  27  56 S16       30.08F
ALBERT LEA     CLEAR     43  21  42 S12G17    30.08S
$$
MNZ078>079-086>088-094>096-290100-
   Southeast Minnesota

CITY           SKY/WX    TMP DP  RH WIND       PRES   REMARKS
ROCHESTER      CLEAR     35  21  56 S14       30.11F WCI  26
6HR MIN TEMP:  31; 6HR MAX TEMP:  36;

RED WING       CLEAR     37  18  44 S10       30.11F
STANTON        CLEAR     38  22  51 SE10      30.08F
DODGE CENTER   CLEAR     36  25  64 SE14      30.09F
WINONA         CLEAR     37  19  48 S7        30.17F
AUSTIN         CLEAR     39  21  48 S9        30.10S
PRESTON        CLEAR     36  19  49 SE10      30.13F
$$
ABBREVIATIONS USED IN REMARKS
   TC - TEMPERATURES IN CELSIUS
  WCI - WIND CHILL INDEX
   HX - HEAT INDEX
  VSB - VISIBILITY
$$



USA.gov is the U.S. government's official web portal to all federal, state and local government web resources and services.